This is the latest recevied weather packets stored in our database for station/object EA2CW-13. If no packets are shown the sender has not sent any weather packets the latest 10 day(s).
| Time | Temp. | Humidity | Pressure | Rain* | Wind** | Luminosity | Snow |
|---|---|---|---|---|---|---|---|
| 1777662063 | 25.56° C | 47% | 1052.4 hPa | - | - | 2 W/m² | - |
| 1777661127 | 26.11° C | 46% | 1052.3 hPa | - | - | 4 W/m² | - |
| 1777660191 | 26.67° C | 44% | 1052.2 hPa | - | - | 6 W/m² | - |
| 1777659255 | 26.67° C | 42% | 1052.3 hPa | - | - | 11 W/m² | - |
| 1777658319 | 28.33° C | 40% | 1052.1 hPa | - | - | 20 W/m² | - |
| 1777657383 | 28.89° C | 38% | 1052.1 hPa | - | - | 24 W/m² | - |
| 1777656447 | 30° C | 35% | 1052 hPa | - | - | 27 W/m² | - |
| 1777655511 | 30.56° C | 34% | 1052 hPa | - | - | 35 W/m² | - |
| 1777654575 | 31.67° C | 32% | 1052.1 hPa | - | - | 35 W/m² | - |
| 1777653639 | 33.33° C | 31% | 1052 hPa | - | - | 52 W/m² | - |
| 1777652703 | 33.89° C | 30% | 1052 hPa | - | - | 63 W/m² | - |
| 1777651767 | 33.33° C | 30% | 1052.1 hPa | - | - | 61 W/m² | - |
| 1777650831 | 34.44° C | 29% | 1052.1 hPa | - | - | 70 W/m² | - |
| 1777649895 | 32.78° C | 32% | 1052.2 hPa | - | - | 64 W/m² | - |
| 1777648959 | 31.67° C | 34% | 1052.3 hPa | - | - | 46 W/m² | - |
| 1777648023 | 32.22° C | 33% | 1052.3 hPa | - | - | 56 W/m² | - |
| 1777647087 | 31.67° C | 35% | 1052.6 hPa | - | - | 53 W/m² | - |
| 1777646151 | 30.56° C | 36% | 1052.7 hPa | - | - | 45 W/m² | - |
| 1777645215 | 29.44° C | 38% | 1052.9 hPa | - | - | 45 W/m² | - |
| 1777644279 | 28.33° C | 39% | 1053.1 hPa | - | - | 44 W/m² | - |
| 1777643343 | 27.78° C | 41% | 1053.3 hPa | - | - | 32 W/m² | - |
| 1777642407 | 27.78° C | 43% | 1053.6 hPa | - | - | 33 W/m² | - |
| 1777641471 | 26.67° C | 43% | 1053.7 hPa | - | - | 26 W/m² | - |
| 1777640536 | 27.22° C | 43% | 1053.8 hPa | - | - | 43 W/m² | - |
| 1777639599 | 26.67° C | 45% | 1053.7 hPa | - | - | 28 W/m² | - |
* Rain since midnight (hover to see other rain measurements)
** Current wind speed in m/s (hover to see current wind gust speed)